Weather in Osinovka

Russia / Kemerovo Oblast     55°23′20″N   86°18′45″E
temp.,
°C
wind,
m/s
gust,
m/s
humid.,
%
clouds,
%
prec.,
mm/h
press.,
hPa
HPBL,
m
7 march, sun
sun701:00−4sw61488100 0.6 1010930
04:00−3sw71493100 0.6 10101105
07:00−4wsw51486100 1.3 10121154
10:00−6w51281100 0.1 1013824
13:00−6w5107975 0.1 1017846
16:00−6wsw5981100 0.0 1018871
19:00−10sw378982 0.0 1021147
22:00−13ssw249162 0.0 102262
8 march, mon
mon801:00−14sse239147 0.0 102322
04:00−15sse249472 0.0 102273
07:00−13se389385 0.0 1020175
10:00−7sse61395100 0.0 1016390
13:00−2s61488100 0.0 1012795
16:00+1s71483100 0.0 1009920
19:00−1ssw61580100 0.0 1007909
22:00−3sw51489100 0.0 10081034
9 march, tue
tue901:00−2wsw61394100 1.1 10111099
04:00−10w399299 0.3 1016306
07:00−14sw399599 0.4 1021262
10:00−12sw51190100 0.0 1024532
13:00−9sw5108395 0.0 1025774
16:00−7ssw598132 0.0 1024850
19:00−9s4118742 0.0 1024399
22:00−10s4119091 0.0 1023353
10 march, wed
wed1001:00−11s4129296 0.0 1022367
04:00−14s389434 0.0 1020167
07:00−14s379848 0.0 1019137
10:00−7ssw499698 0.1 1018370
13:00−3ssw479399 0.2 1016654
16:00−1ssw3790100 0.1 1015784
19:00−1s3889100 0.1 1013401
22:00−2sse41294100 0.0 1010495
11 march, thu
thu1101:00−1sse6158899 0.0 1005438
04:000s61682100 0.0 1000928
07:00+1ssw81698100 0.6 10001125
10:00−5wsw8158696 0.3 10051028
13:00−6sw7138898 0.4 1010969
16:00−5sw61190100 0.2 10131076
19:00−6sw61289100 0.6 1015907
22:00−9ssw4139198 0.1 1017516